RH
49 58 56 46 31 23 29 54 79 88 95 95 99 97 87 73 71 69 67 68 68 74 82 96 86 99 97 95 80 64 49 74
27 33 48 63 66 56 44 94 100 100 99 100 100 97 97 74 67 67 65 69 68 72 79 86 77 100 81 75 89 96 100 100
21 21 22 23 28 58 91 99 98 99 100 100 100 99 100 90 88 75 82 80 98 97 83 99 99 100 80 94 99 91 98 98
28 23 23 24 24 24 26 36 52 92 99 98 100 100 100 99 100 95 85 99 100 100 99 100 100 99 99 81 82 89 99 99
34 36 32 30 28 25 24 26 28 31 36 51 72 81 84 99 99 99 99 100 100 94 98 99 98 100 100 98 100 100 91 97
32 28 29 30 35 36 28 29 30 32 33 31 33 38 36 36 39 46 62 97 98 100 92 100 98 100 99 100 100 100 100 98
34 33 31 28 25 25 28 37 45 44 41 38 38 42 45 41 40 40 37 34 73 97 100 97 100 98 98 97 92 98 85 99
40 37 29 28 29 28 28 28 32 42 46 43 39 40 37 48 46 42 35 36 36 50 96 99 99 98 100 100 97 97 96 94
40 40 38 32 26 25 31 27 23 25 42 41 39 42 44 44 44 48 44 50 42 38 64 59 58 85 99 100 98 98 100 100
34 32 34 34 38 33 30 34 22 21 33 47 43 49 54 57 62 62 60 56 46 43 47 65 61 64 92 99 100 99 100 98
44 44 53 68 73 71 79 68 54 49 55 49 47 54 58 60 62 64 72 70 61 63 59 67 78 74 78 99 100 100 100 100
86 82 78 90 77 68 81 80 70 62 58 46 40 37 41 47 60 60 67 94 86 73 65 69 75 81 76 83 82 100 100 100
78 82 88 93 81 60 76 83 65 58 53 44 39 40 40 42 52 68 64 70 95 100 98 87 86 83 82 81 73 83 93 100
89 92 96 99 98 96 83 84 70 67 64 45 40 39 37 39 44 52 65 75 78 87 98 100 99 97 86 82 85 100 98 98
99 100 100 100 94 98 98 81 81 69 70 53 48 46 50 53 55 57 63 70 82 86 82 98 100 100 95 86 73 95 100 99
90 100 100 99 95 99 96 89 90 75 76 58 51 44 48 58 62 67 71 71 73 77 83 88 92 100 100 96 83 94 100 100
99 95 100 96 99 99 98 83 82 78 75 63 50 48 52 60 65 71 77 82 83 77 75 89 91 98 95 100 100 97 92 99
100 100 92 99 100 100 97 71 75 82 74 68 56 58 58 63 67 71 77 83 84 95 100 100 94 98 94 89 97 98 97 99
94 84 92 99 100 100 89 75 87 84 75 72 70 70 67 67 71 75 79 81 81 92 100 98 98 98 100 99 94 98 100 98
Wind_Speed
25 19 13 12 12 13 19 21 24 31 39 40 41 40 38 36 36 35 35 36 35 35 40 47 42 41 39 37 42 47 49 49
23 27 25 21 15 7 7 17 20 25 31 34 40 40 40 36 35 33 34 34 32 32 39 45 41 46 40 32 36 34 42 48
21 23 25 29 30 23 12 3 7 16 21 30 35 35 36 34 35 34 34 35 32 35 34 42 46 48 40 38 50 42 40 45
19 19 20 21 23 22 21 21 16 3 10 18 29 30 22 28 27 31 33 31 32 31 32 37 40 43 52 47 45 54 53 50
20 21 20 19 16 12 13 13 15 19 21 15 9 6 9 13 16 19 19 19 22 21 27 41 36 47 49 47 45 53 53 53
20 22 22 22 22 19 14 13 14 15 17 19 19 16 15 13 11 11 16 20 16 26 21 38 38 48 42 46 33 45 59 53
18 21 23 23 22 20 19 19 16 16 17 16 15 17 19 22 22 23 20 20 19 21 23 25 36 31 42 38 38 46 42 54
20 23 26 24 24 21 18 18 20 19 18 17 18 20 20 22 23 25 24 23 21 17 19 21 26 30 34 40 40 41 38 54
25 29 30 30 30 27 24 21 24 21 20 20 23 25 25 27 30 35 28 27 23 21 22 23 16 26 29 37 39 39 45 59
29 30 31 30 27 27 27 30 27 24 21 20 17 18 20 23 22 28 29 28 31 35 32 30 27 28 28 36 41 44 47 46
25 27 28 26 28 25 24 25 27 20 12 16 20 20 19 19 22 24 26 28 27 29 33 37 37 32 28 31 36 43 50 52
26 26 26 27 32 28 22 19 17 9 13 15 17 18 19 19 20 22 22 20 26 28 28 32 39 39 32 32 31 35 46 50
25 28 26 33 40 33 21 14 12 8 10 14 14 16 18 19 19 20 20 20 21 24 29 32 35 38 43 44 44 40 39 50
20 25 28 28 38 30 19 13 9 10 11 13 16 18 20 21 22 23 24 23 21 23 24 28 32 34 34 34 39 39 41 42
21 27 29 33 35 33 22 9 10 9 11 14 18 22 24 25 25 25 24 25 27 25 24 23 27 33 33 35 36 36 40 42
31 32 32 38 39 31 17 12 13 10 11 15 20 24 27 27 26 25 23 24 25 28 29 28 29 28 33 38 39 38 37 40
27 33 34 38 41 30 23 18 17 8 9 16 22 24 25 27 28 27 24 22 22 23 26 33 34 31 32 35 38 37 36 38
29 30 36 34 38 34 20 11 11 6 11 17 21 23 27 29 29 27 25 23 23 19 21 23 32 32 34 34 35 35 36 41
31 34 34 34 33 31 17 2 3 7 14 18 20 24 27 29 29 27 26 24 23 18 15 18 23 30 30 31 32 32 33 40
Wind_Direction
37 21 1 333 310 273 256 260 262 255 246 246 244 248 250 247 248 250 253 252 254 256 256 241 238 228 219 207 208 204 202 196
45 46 42 34 23 9 267 251 251 247 244 237 245 245 243 247 250 255 257 258 256 251 249 242 243 228 240 240 217 216 201 195
45 45 47 46 48 48 31 328 259 253 243 237 235 236 237 248 250 254 254 259 259 256 254 248 245 238 240 221 213 210 212 200
34 38 44 46 46 48 46 44 34 331 224 229 234 232 239 246 252 253 254 258 256 257 253 253 253 256 235 228 218 207 199 203
36 32 31 29 33 41 43 48 32 12 12 19 27 2 308 273 268 266 263 266 259 276 257 259 257 250 228 215 215 211 205 201
25 20 15 16 20 21 25 20 8 354 346 343 330 330 342 345 335 316 308 286 274 266 270 255 256 231 239 219 219 219 209 214
13 10 4 1 359 354 344 341 342 340 338 329 322 318 313 307 297 297 304 311 292 278 262 266 249 256 228 236 238 213 235 208
1 356 357 352 345 341 330 324 319 321 318 314 312 306 300 290 283 294 294 292 288 294 265 257 250 241 237 229 212 232 227 223
349 345 343 342 337 331 317 309 300 303 304 303 301 297 295 283 289 279 276 270 272 283 265 266 247 244 251 231 235 238 230 220
337 332 326 321 320 316 311 302 292 283 286 296 303 299 296 290 287 277 267 262 259 268 269 258 252 246 240 239 228 241 225 226
324 326 327 326 319 314 305 299 285 269 287 299 302 309 308 305 289 292 276 266 268 259 247 246 250 251 251 241 239 234 233 229
310 311 313 320 325 316 307 295 280 292 302 305 305 308 305 306 308 293 289 272 264 258 255 258 246 243 230 244 247 244 233 231
321 327 323 320 326 316 300 302 269 292 314 316 321 323 315 309 304 299 297 286 266 263 259 253 256 250 244 239 235 230 235 237
329 324 318 314 330 315 299 311 285 280 315 333 333 336 331 325 319 305 291 284 282 268 257 254 251 252 245 240 242 235 234 236
325 328 329 329 331 330 312 322 352 286 304 328 338 338 335 329 324 320 312 295 283 274 271 258 249 249 247 238 242 237 239 240
335 333 329 329 335 330 322 311 327 309 297 327 337 335 332 327 325 322 312 299 288 278 267 258 251 241 239 238 237 237 232 235
325 333 330 335 329 339 320 307 311 321 315 330 335 333 332 332 334 330 323 312 302 287 274 263 255 247 239 233 238 225 236 233
325 328 329 329 336 342 331 271 311 322 326 333 336 338 340 340 340 335 330 323 318 300 292 278 258 258 246 240 242 237 240 241
326 325 329 336 342 356 353 336 352 344 339 340 342 344 344 344 344 340 335 328 322 316 299 282 261 249 243 233 232 234 235 247